,,PA_Meas_PMT16A,,PR_Meas_QMR101_102,,RH_Meas_QMH101,,SR_Meas_QMS101,,TA_Meas_QMH101,,GenWind,,GenWind,
time,status,PA,status,PR,status,RH,status,SR,status,TA,status,DirAvg,status,SpdAvg,
2011-07-15, 00:00:04,VALID,918.137,VALID,0,VALID,96.4667,VALID,0,VALID,19.8573,VALID,71,VALID,1.03984,
2011-07-15, 00:01:04,VALID,918.122,VALID,0,VALID,96.4515,VALID,0,VALID,19.8558,VALID,71,VALID,0.771875,
2011-07-15, 00:02:04,VALID,918.118,VALID,0,VALID,96.4362,VALID,0,VALID,19.8573,VALID,70,VALID,0.7375,
2011-07-15, 00:03:04,VALID,918.104,VALID,0,VALID,96.3905,VALID,0,VALID,19.7973,VALID,71,VALID,0.540234,
2011-07-15, 00:04:04,VALID,918.115,VALID,0,VALID,96.3524,VALID,0,VALID,19.8003,VALID,71,VALID,0.198047,
2011-07-15, 00:05:04,VALID,918.102,VALID,0,VALID,96.2914,VALID,0,VALID,19.8018,VALID,71,VALID,0.322656,
2011-07-15, 00:06:04,VALID,918.06,VALID,0,VALID,96.3142,VALID,0,VALID,19.6983,VALID,71,VALID,0.519141,
2011-07-15, 00:07:04,VALID,918.099,VALID,0,VALID,96.3371,VALID,0,VALID,19.7403,VALID,71,VALID,0.643359,
2011-07-15, 00:08:04,VALID,918.097,VALID,0,VALID,96.3676,VALID,0,VALID,19.7613,VALID,71,VALID,0.61875,
2011-07-15, 00:09:04,VALID,918.093,VALID,0,VALID,96.3447,VALID,0,VALID,19.7013,VALID,71,VALID,0.620313,
2011-07-15, 00:10:04,VALID,918.128,VALID,0,VALID,96.3829,VALID,0,VALID,19.7208,VALID,70,VALID,1.08047,
2011-07-15, 00:11:04,VALID,918.084,VALID,0,VALID,96.4591,VALID,0,VALID,19.7808,VALID,71,VALID,1.2832,
2011-07-15, 00:12:04,VALID,918.069,VALID,0,VALID,96.4515,VALID,0,VALID,19.7598,VALID,156,VALID,0.941016,
2011-07-15, 00:13:04,VALID,918.052,VALID,0,VALID,96.4896,VALID,0,VALID,19.7988,VALID,156,VALID,1.0375,
2011-07-15, 00:14:04,VALID,918.001,VALID,0,VALID,96.4819,VALID,0,VALID,19.8198,VALID,180,VALID,0.553125,
2011-07-15, 00:15:04,VALID,917.993,VALID,0,VALID,96.4133,VALID,0,VALID,19.7793,VALID,152,VALID,0.278125,
2011-07-15, 00:16:04,VALID,917.951,VALID,0,VALID,96.3981,VALID,0,VALID,19.7988,VALID,152,VALID,0.851563,
2011-07-15, 00:17:04,VALID,917.929,VALID,0,VALID,96.3447,VALID,0,VALID,19.7598,VALID,152,VALID,0.728125,
2011-07-15, 00:18:04,VALID,917.906,VALID,0,VALID,96.3524,VALID,0,VALID,19.8198,VALID,152,VALID,0.624219,
2011-07-15, 00:19:04,VALID,917.931,VALID,0,VALID,96.3066,VALID,0,VALID,19.7988,VALID,152,VALID,0.888672,
2011-07-15, 00:20:04,VALID,917.938,VALID,0,VALID,96.2533,VALID,0,VALID,19.7793,VALID,152,VALID,0.532812,
2011-07-15, 00:21:04,VALID,917.925,VALID,0,VALID,96.2151,VALID,0,VALID,19.7583,VALID,152,VALID,0.781641,
2011-07-15, 00:22:04,VALID,917.95,VALID,0,VALID,96.2075,VALID,0,VALID,19.7583,VALID,154,VALID,0.925,
2011-07-15, 00:23:04,VALID,917.965,VALID,0,VALID,96.2228,VALID,0,VALID,19.7973,VALID,155,VALID,0.982422,
2011-07-15, 00:24:04,VALID,917.968,VALID,0,VALID,96.238,VALID,0,VALID,19.8183,VALID,155,VALID,0.79375,
2011-07-15, 00:25:04,VALID,917.995,VALID,0,VALID,96.2151,VALID,0,VALID,19.8183,VALID,155,VALID,0.820703,
2011-07-15, 00:26:04,VALID,917.984,VALID,0,VALID,96.2533,VALID,0,VALID,19.9188,VALID,155,VALID,0.449219,
2011-07-15, 00:27:04,VALID,917.977,VALID,0,VALID,96.2837,VALID,0,VALID,19.9173,VALID,155,VALID,0.916797,
2011-07-15, 00:28:04,VALID,917.957,VALID,0,VALID,96.2761,VALID,0,VALID,19.8948,VALID,116,VALID,1.29023,
2011-07-15, 00:29:04,VALID,917.972,VALID,0,VALID,96.2609,VALID,0,VALID,19.8963,VALID,112,VALID,1.06406,
2011-07-15, 00:30:04,VALID,917.935,VALID,0,VALID,96.2228,VALID,0,VALID,19.9353,VALID,127,VALID,1.00898,
2011-07-15, 00:31:04,VALID,917.922,VALID,0,VALID,96.2533,VALID,0,VALID,19.9563,VALID,121,VALID,0.995313,
2011-07-15, 00:32:04,VALID,917.876,VALID,0,VALID,96.238,VALID,0,VALID,19.9563,VALID,113,VALID,1.16367,
2011-07-15, 00:33:04,VALID,917.877,VALID,0,VALID,96.2761,VALID,0,VALID,19.9563,VALID,117,VALID,1.34336,
2011-07-15, 00:34:04,VALID,917.841,VALID,0,VALID,96.299,VALID,0,VALID,19.9563,VALID,117,VALID,1.23359,
2011-07-15, 00:35:04,VALID,917.832,VALID,0,VALID,96.3066,VALID,0,VALID,19.9353,VALID,106,VALID,1.13945,
2011-07-15, 00:36:04,VALID,917.82,VALID,0,VALID,96.3142,VALID,0,VALID,19.9773,VALID,106,VALID,1.01719,
2011-07-15, 00:37:04,VALID,917.781,VALID,0,VALID,96.3676,VALID,0,VALID,19.9773,VALID,106,VALID,1.04492,
2011-07-15, 00:38:04,VALID,917.776,VALID,0,VALID,96.3447,VALID,0,VALID,19.9158,VALID,106,VALID,0.992969,
2011-07-15, 00:39:04,VALID,917.754,VALID,0,VALID,96.3981,VALID,0,VALID,19.9578,VALID,112,VALID,1.03867,
2011-07-15, 00:40:04,VALID,917.74,VALID,0,VALID,96.4286,VALID,0,VALID,19.9773,VALID,120,VALID,1.04258,
2011-07-15, 00:41:04,VALID,917.708,VALID,0,VALID,96.4819,VALID,0,VALID,19.9158,VALID,120,VALID,0.825391,
2011-07-15, 00:42:04,VALID,917.666,VALID,0,VALID,96.4743,VALID,0,VALID,19.9353,VALID,120,VALID,1.06172,
2011-07-15, 00:43:04,VALID,917.633,VALID,0,VALID,96.4896,VALID,0,VALID,19.9368,VALID,120,VALID,1.33398,
2011-07-15, 00:44:04,VALID,917.617,VALID,0,VALID,96.5048,VALID,0,VALID,19.9353,VALID,120,VALID,1.26133,
2011-07-15, 00:45:04,VALID,917.616,VALID,0,VALID,96.5353,VALID,0.107441,VALID,19.9548,VALID,107,VALID,1.03906,
2011-07-15, 00:46:04,VALID,917.591,VALID,0,VALID,96.5582,VALID,0.107441,VALID,19.9548,VALID,108,VALID,0.957422,
2011-07-15, 00:47:04,VALID,917.615,VALID,0,VALID,96.5734,VALID,0,VALID,19.9143,VALID,135,VALID,1.04414,
2011-07-15, 00:48:04,VALID,917.572,VALID,0,VALID,96.6039,VALID,0,VALID,19.9548,VALID,135,VALID,0.975781,
2011-07-15, 00:49:04,VALID,917.581,VALID,0,VALID,96.5963,VALID,0,VALID,19.9548,VALID,135,VALID,0.75,
2011-07-15, 00:50:04,VALID,917.563,VALID,0,VALID,96.6039,VALID,0,VALID,19.9743,VALID,155,VALID,1.02305,
2011-07-15, 00:51:04,VALID,917.554,VALID,0,VALID,96.5887,VALID,0,VALID,19.9548,VALID,155,VALID,0.64375,
2011-07-15, 00:52:04,VALID,917.534,VALID,0,VALID,96.5887,VALID,0,VALID,19.9353,VALID,155,VALID,0.407031,
2011-07-15, 00:53:04,VALID,917.553,VALID,0,VALID,96.5811,VALID,0,VALID,19.9353,VALID,115,VALID,1.07891,
2011-07-15, 00:54:04,VALID,917.563,VALID,0,VALID,96.5658,VALID,0.107441,VALID,19.9368,VALID,115,VALID,1.01094,
2011-07-15, 00:55:04,VALID,917.536,VALID,0,VALID,96.5658,VALID,0.107441,VALID,19.9158,VALID,115,VALID,0.657031,
2011-07-15, 00:56:04,VALID,917.558,VALID,0,VALID,96.5506,VALID,0.107441,VALID,19.9158,VALID,119,VALID,0.659375,
2011-07-15, 00:57:04,VALID,917.563,VALID,0,VALID,96.5201,VALID,0,VALID,19.8768,VALID,120,VALID,0.897266,
2011-07-15, 00:58:04,VALID,917.548,VALID,0,VALID,96.5353,VALID,0.107441,VALID,19.8978,VALID,120,VALID,0.982031,
2011-07-15, 00:59:04,VALID,917.568,VALID,0,VALID,96.4972,VALID,0,VALID,19.8378,VALID,110,VALID,1.11016,
2011-07-15, 01:00:04,VALID,917.53,VALID,0,VALID,96.5277,VALID,0.107441,VALID,19.8378,VALID,110,VALID,1.23086,
2011-07-15, 01:01:04,VALID,917.549,VALID,0,VALID,96.5429,VALID,0,VALID,19.8378,VALID,110,VALID,1.09063,
2011-07-15, 01:02:04,VALID,917.502,VALID,0,VALID,96.5124,VALID,0.107441,VALID,19.8378,VALID,110,VALID,1.00156,
2011-07-15, 01:03:04,VALID,917.515,VALID,0,VALID,96.5048,VALID,0,VALID,19.8378,VALID,110,VALID,0.905078,
2011-07-15, 01:04:04,VALID,917.454,VALID,0,VALID,96.5201,VALID,0.107441,VALID,19.8588,VALID,110,VALID,0.714453,
2011-07-15, 01:05:04,VALID,917.469,VALID,0,VALID,96.4896,VALID,0,VALID,19.8573,VALID,134,VALID,0.835156,
2011-07-15, 01:06:04,VALID,917.451,VALID,0,VALID,96.4819,VALID,0,VALID,19.8573,VALID,141,VALID,0.716797,
2011-07-15, 01:07:04,VALID,917.444,VALID,0,VALID,96.4515,VALID,0,VALID,19.8573,VALID,141,VALID,1.06211,
2011-07-15, 01:08:04,VALID,917.429,VALID,0,VALID,96.3905,VALID,0,VALID,19.8183,VALID,141,VALID,0.925781,
2011-07-15, 01:09:04,VALID,917.437,VALID,0,VALID,96.36,VALID,0,VALID,19.8378,VALID,141,VALID,0.774219,
2011-07-15, 01:10:04,VALID,917.461,VALID,0,VALID,96.3066,VALID,0,VALID,19.8183,VALID,141,VALID,0.444922,
2011-07-15, 01:11:04,VALID,917.496,VALID,0,VALID,96.2609,VALID,0,VALID,19.8183,VALID,141,VALID,0.735547,
2011-07-15, 01:12:04,VALID,917.529,VALID,0,VALID,96.2228,VALID,0,VALID,19.8378,VALID,141,VALID,0.666406,
2011-07-15, 01:13:04,VALID,917.55,VALID,0,VALID,96.1389,VALID,0.107441,VALID,19.8378,VALID,141,VALID,0.476563,
2011-07-15, 01:14:04,VALID,917.6,VALID,0,VALID,96.0169,VALID,0,VALID,19.8768,VALID,141,VALID,0.619141,
2011-07-15, 01:15:04,VALID,917.608,VALID,0,VALID,95.9407,VALID,0,VALID,19.8978,VALID,141,VALID,0.158984,
2011-07-15, 01:16:04,VALID,917.586,VALID,0,VALID,95.8416,VALID,0,VALID,19.9173,VALID,141,VALID,0.476563,
2011-07-15, 01:17:04,VALID,917.623,VALID,0,VALID,95.6967,VALID,0,VALID,19.9158,VALID,141,VALID,0.389453,
2011-07-15, 01:18:04,VALID,917.592,VALID,0,VALID,95.5671,VALID,0,VALID,19.9563,VALID,141,VALID,0.335156,
2011-07-15, 01:19:04,VALID,917.573,VALID,0,VALID,95.4452,VALID,0,VALID,19.9353,VALID,141,VALID,0.289844,
2011-07-15, 01:20:04,VALID,917.546,VALID,0,VALID,95.3232,VALID,0,VALID,19.9758,VALID,141,VALID,0,
2011-07-15, 01:21:04,VALID,917.536,VALID,0,VALID,95.2241,VALID,0,VALID,19.9758,VALID,141,VALID,0.222266,
2011-07-15, 01:22:04,VALID,917.534,VALID,0,VALID,95.0869,VALID,0,VALID,19.9548,VALID,141,VALID,0.441797,
2011-07-15, 01:23:04,VALID,917.516,VALID,0,VALID,95.003,VALID,0,VALID,19.9563,VALID,141,VALID,0.315625,
2011-07-15, 01:24:04,VALID,917.501,VALID,0,VALID,95.003,VALID,0,VALID,19.9743,VALID,141,VALID,0.331641,
2011-07-15, 01:25:04,VALID,917.468,VALID,0,VALID,94.9801,VALID,0.107441,VALID,19.9743,VALID,141,VALID,0.401172,
2011-07-15, 01:26:04,VALID,917.483,VALID,0,VALID,94.9496,VALID,0,VALID,19.9743,VALID,141,VALID,0.523047,
2011-07-15, 01:27:04,VALID,917.467,VALID,0,VALID,94.9039,VALID,0,VALID,20.0148,VALID,140,VALID,0.944531,
2011-07-15, 01:28:04,VALID,917.474,VALID,0,VALID,94.8734,VALID,0,VALID,20.0133,VALID,141,VALID,0.319141,
2011-07-15, 01:29:04,VALID,917.459,VALID,0,VALID,94.7819,VALID,0,VALID,20.0343,VALID,141,VALID,1.08633,
2011-07-15, 01:30:04,VALID,917.48,VALID,0,VALID,94.6828,VALID,0,VALID,20.0733,VALID,141,VALID,0.738672,
2011-07-15, 01:31:04,VALID,917.453,VALID,0,VALID,94.6371,VALID,0,VALID,20.0523,VALID,159,VALID,1.01211,
2011-07-15, 01:32:04,VALID,917.436,VALID,0,VALID,94.5456,VALID,0,VALID,20.0508,VALID,168,VALID,0.775781,
2011-07-15, 01:33:04,VALID,917.413,VALID,0,VALID,94.5227,VALID,0,VALID,20.0913,VALID,130,VALID,0.886719,
2011-07-15, 01:34:04,VALID,917.404,VALID,0,VALID,94.4617,VALID,0,VALID,20.0928,VALID,130,VALID,0.561328,
2011-07-15, 01:35:04,VALID,917.391,VALID,0,VALID,94.4008,VALID,0,VALID,20.0733,VALID,130,VALID,1.01367,
2011-07-15, 01:36:04,VALID,917.349,VALID,0,VALID,94.4922,VALID,0,VALID,20.0538,VALID,116,VALID,0.883203,
2011-07-15, 01:37:04,VALID,917.347,VALID,0,VALID,94.5685,VALID,0.107441,VALID,20.0133,VALID,116,VALID,0.969531,
2011-07-15, 01:38:04,VALID,917.322,VALID,0,VALID,94.6295,VALID,0,VALID,19.9938,VALID,116,VALID,1.03906,
2011-07-15, 01:39:04,VALID,917.29,VALID,0,VALID,94.6981,VALID,0,VALID,19.9953,VALID,116,VALID,0.893359,
2011-07-15, 01:40:04,VALID,917.285,VALID,0,VALID,94.7286,VALID,0,VALID,19.9953,VALID,116,VALID,0.6875,
2011-07-15, 01:41:04,VALID,917.235,VALID,0,VALID,94.7362,VALID,0,VALID,19.9758,VALID,116,VALID,0.5125,
2011-07-15, 01:42:04,VALID,917.217,VALID,0,VALID,94.7667,VALID,0,VALID,19.9563,VALID,116,VALID,0.446875,
2011-07-15, 01:43:04,VALID,917.219,VALID,0,VALID,94.7667,VALID,0,VALID,19.9353,VALID,117,VALID,0.500391,
2011-07-15, 01:44:04,VALID,917.179,VALID,0,VALID,94.7972,VALID,0,VALID,19.9368,VALID,117,VALID,0.426562,
2011-07-15, 01:45:04,VALID,917.198,VALID,0,VALID,94.7667,VALID,0,VALID,19.8963,VALID,141,VALID,0.657422,
2011-07-15, 01:46:04,VALID,917.16,VALID,0,VALID,94.8048,VALID,0,VALID,19.8768,VALID,141,VALID,0.582031,
2011-07-15, 01:47:04,VALID,917.148,VALID,0,VALID,94.8887,VALID,0,VALID,19.8963,VALID,151,VALID,0.790625,
2011-07-15, 01:48:04,VALID,917.126,VALID,0,VALID,94.942,VALID,0,VALID,19.9158,VALID,151,VALID,0.738672,
2011-07-15, 01:49:04,VALID,917.127,VALID,0,VALID,94.942,VALID,0,VALID,19.9368,VALID,151,VALID,0.66875,
2011-07-15, 01:50:04,VALID,917.121,VALID,0,VALID,94.8658,VALID,0,VALID,19.8978,VALID,152,VALID,0.659375,
2011-07-15, 01:51:04,VALID,917.067,VALID,0,VALID,94.8505,VALID,0,VALID,19.8573,VALID,151,VALID,0.629297,
2011-07-15, 01:52:04,VALID,917.066,VALID,0,VALID,94.8887,VALID,0,VALID,19.8393,VALID,151,VALID,0.726563,
2011-07-15, 01:53:04,VALID,917.052,VALID,0,VALID,94.9573,VALID,0,VALID,19.8393,VALID,151,VALID,0.775391,
2011-07-15, 01:54:04,VALID,917.01,VALID,0,VALID,95.0792,VALID,0,VALID,19.7988,VALID,151,VALID,0.958984,
2011-07-15, 01:55:04,VALID,916.966,VALID,0,VALID,95.1631,VALID,0,VALID,19.7793,VALID,151,VALID,0.791016,
2011-07-15, 01:56:04,VALID,916.955,VALID,0,VALID,95.247,VALID,0,VALID,19.7598,VALID,151,VALID,0.851563,
2011-07-15, 01:57:04,VALID,916.937,VALID,0,VALID,95.2927,VALID,0,VALID,19.7613,VALID,151,VALID,0.722656,
2011-07-15, 01:58:04,VALID,916.947,VALID,0,VALID,95.3156,VALID,0,VALID,19.7418,VALID,151,VALID,0.859375,
2011-07-15, 01:59:04,VALID,916.898,VALID,0,VALID,95.3156,VALID,0,VALID,19.7193,VALID,150,VALID,0.576172,
2011-07-15, 02:00:04,VALID,916.919,VALID,0,VALID,95.2698,VALID,0,VALID,19.7208,VALID,150,VALID,0.779688,
2011-07-15, 02:01:04,VALID,916.934,VALID,0,VALID,95.2546,VALID,0,VALID,19.7223,VALID,122,VALID,0.545703,
2011-07-15, 02:02:04,VALID,916.916,VALID,0,VALID,95.2165,VALID,0,VALID,19.7013,VALID,122,VALID,0.512109,
2011-07-15, 02:03:04,VALID,916.919,VALID,0,VALID,95.2012,VALID,0.107441,VALID,19.7028,VALID,122,VALID,0.400391,
2011-07-15, 02:04:04,VALID,916.909,VALID,0,VALID,95.2165,VALID,0,VALID,19.6623,VALID,123,VALID,0.252734,
2011-07-15, 02:05:04,VALID,916.899,VALID,0,VALID,95.2698,VALID,0,VALID,19.7028,VALID,123,VALID,0.502734,
2011-07-15, 02:06:04,VALID,916.898,VALID,0,VALID,95.2851,VALID,0,VALID,19.7028,VALID,123,VALID,0.0742188,
2011-07-15, 02:07:04,VALID,916.873,VALID,0,VALID,95.3232,VALID,0,VALID,19.6818,VALID,122,VALID,0,
2011-07-15, 02:08:04,VALID,916.854,VALID,0,VALID,95.3461,VALID,0,VALID,19.7028,VALID,122,VALID,0.362891,
2011-07-15, 02:09:04,VALID,916.809,VALID,0,VALID,95.3537,VALID,0.107441,VALID,19.7013,VALID,122,VALID,0.281641,
2011-07-15, 02:10:04,VALID,916.818,VALID,0,VALID,95.3537,VALID,0,VALID,19.7223,VALID,122,VALID,0.221875,
2011-07-15, 02:11:04,VALID,916.792,VALID,0,VALID,95.3079,VALID,0,VALID,19.7223,VALID,122,VALID,0.407031,
2011-07-15, 02:12:04,VALID,916.75,VALID,0,VALID,95.2622,VALID,0,VALID,19.7223,VALID,122,VALID,0,
2011-07-15, 02:13:04,VALID,916.751,VALID,0,VALID,95.2088,VALID,0,VALID,19.7223,VALID,122,VALID,0.0753906,
2011-07-15, 02:14:04,VALID,916.72,VALID,0,VALID,95.1707,VALID,0,VALID,19.7208,VALID,122,VALID,0,
2011-07-15, 02:15:04,VALID,916.733,VALID,0,VALID,95.0945,VALID,0,VALID,19.7418,VALID,123,VALID,0,
2011-07-15, 02:16:04,VALID,916.731,VALID,0,VALID,94.8734,VALID,0,VALID,19.7013,VALID,123,VALID,0,
2011-07-15, 02:17:04,VALID,916.735,VALID,0,VALID,94.6523,VALID,0,VALID,19.6428,VALID,122,VALID,0,
2011-07-15, 02:18:04,VALID,916.728,VALID,0,VALID,94.8048,VALID,0,VALID,19.6233,VALID,122,VALID,0.392188,
2011-07-15, 02:19:04,VALID,916.725,VALID,0,VALID,94.9192,VALID,0,VALID,19.6038,VALID,122,VALID,0.466016,
2011-07-15, 02:20:04,VALID,916.7,VALID,0,VALID,95.0183,VALID,0,VALID,19.6248,VALID,122,VALID,0.380859,
2011-07-15, 02:21:04,VALID,916.696,VALID,0,VALID,95.1479,VALID,0,VALID,19.6248,VALID,122,VALID,0.444922,
2011-07-15, 02:22:04,VALID,916.689,VALID,0,VALID,95.2546,VALID,0,VALID,19.6443,VALID,122,VALID,0.415625,
2011-07-15, 02:23:04,VALID,916.644,VALID,0,VALID,95.3994,VALID,0,VALID,19.6428,VALID,123,VALID,0.835938,
2011-07-15, 02:24:04,VALID,916.672,VALID,0,VALID,95.4909,VALID,0,VALID,19.6638,VALID,123,VALID,0.808984,
2011-07-15, 02:25:04,VALID,916.698,VALID,0,VALID,95.6129,VALID,0,VALID,19.6233,VALID,150,VALID,1.11875,
2011-07-15, 02:26:04,VALID,916.681,VALID,0,VALID,95.7196,VALID,0,VALID,19.6038,VALID,150,VALID,0.735937,
2011-07-15, 02:27:04,VALID,916.697,VALID,0,VALID,95.8645,VALID,0,VALID,19.6233,VALID,175,VALID,0.770312,
2011-07-15, 02:28:04,VALID,916.688,VALID,0,VALID,95.9712,VALID,0,VALID,19.6233,VALID,178,VALID,0.65625,
2011-07-15, 02:29:04,VALID,916.697,VALID,0,VALID,96.0474,VALID,0,VALID,19.6638,VALID,177,VALID,0.423828,
2011-07-15, 02:30:04,VALID,916.696,VALID,0,VALID,96.1236,VALID,0,VALID,19.6638,VALID,178,VALID,0,
2011-07-15, 02:31:04,VALID,916.689,VALID,0,VALID,96.1846,VALID,0,VALID,19.6833,VALID,177,VALID,0,
2011-07-15, 02:32:04,VALID,916.727,VALID,0,VALID,96.1999,VALID,0,VALID,19.6623,VALID,177,VALID,0,
2011-07-15, 02:33:04,VALID,916.718,VALID,0,VALID,96.2151,VALID,0,VALID,19.6623,VALID,177,VALID,0,
2011-07-15, 02:34:04,VALID,916.757,VALID,0,VALID,96.238,VALID,0,VALID,19.6833,VALID,177,VALID,0,
2011-07-15, 02:35:04,VALID,916.766,VALID,0,VALID,96.2761,VALID,0,VALID,19.6623,VALID,177,VALID,0.0957031,
2011-07-15, 02:36:04,VALID,916.772,VALID,0,VALID,96.2914,VALID,0,VALID,19.6833,VALID,177,VALID,0,
2011-07-15, 02:37:04,VALID,916.763,VALID,0,VALID,96.3066,VALID,0,VALID,19.6833,VALID,177,VALID,0.00429688,
2011-07-15, 02:38:04,VALID,916.775,VALID,0,VALID,96.3066,VALID,0,VALID,19.6638,VALID,178,VALID,0.283594,
2011-07-15, 02:39:04,VALID,916.721,VALID,0,VALID,96.3142,VALID,0,VALID,19.6443,VALID,177,VALID,0.511328,
2011-07-15, 02:40:04,VALID,916.732,VALID,0,VALID,96.2761,VALID,0,VALID,19.6248,VALID,177,VALID,0.550781,
2011-07-15, 02:41:04,VALID,916.691,VALID,0,VALID,96.3295,VALID,0,VALID,19.6038,VALID,177,VALID,0.591797,
2011-07-15, 02:42:04,VALID,916.704,VALID,0,VALID,96.299,VALID,0,VALID,19.5648,VALID,177,VALID,0.505078,
2011-07-15, 02:43:04,VALID,916.685,VALID,0,VALID,96.3371,VALID,0,VALID,19.5858,VALID,177,VALID,0.302344,
2011-07-15, 02:44:04,VALID,916.701,VALID,0,VALID,96.3981,VALID,0,VALID,19.5648,VALID,178,VALID,0,
2011-07-15, 02:45:04,VALID,916.7,VALID,0,VALID,96.4133,VALID,0.107441,VALID,19.5648,VALID,177,VALID,0,
2011-07-15, 02:46:04,VALID,916.703,VALID,0,VALID,96.4286,VALID,0,VALID,19.5648,VALID,177,VALID,0,
2011-07-15, 02:47:04,VALID,916.695,VALID,0,VALID,96.4286,VALID,0,VALID,19.5858,VALID,177,VALID,0,
2011-07-15, 02:48:04,VALID,916.69,VALID,0,VALID,96.4591,VALID,0,VALID,19.5648,VALID,178,VALID,0,
2011-07-15, 02:49:04,VALID,916.682,VALID,0,VALID,96.4591,VALID,0.107441,VALID,19.5648,VALID,178,VALID,0.0285156,
2011-07-15, 02:50:04,VALID,916.704,VALID,0,VALID,96.4515,VALID,0.107441,VALID,19.5453,VALID,178,VALID,0.371484,
2011-07-15, 02:51:04,VALID,916.695,VALID,0,VALID,96.4819,VALID,0,VALID,19.5858,VALID,178,VALID,0.398438,
2011-07-15, 02:52:04,VALID,916.691,VALID,0,VALID,96.4819,VALID,0,VALID,19.5648,VALID,177,VALID,0.403906,
2011-07-15, 02:53:04,VALID,916.71,VALID,0,VALID,96.4743,VALID,0.107441,VALID,19.6053,VALID,177,VALID,0.429297,
2011-07-15, 02:54:04,VALID,916.751,VALID,0,VALID,96.5429,VALID,0,VALID,19.5858,VALID,178,VALID,0.295703,
2011-07-15, 02:55:04,VALID,916.733,VALID,0,VALID,96.5277,VALID,0,VALID,19.6248,VALID,177,VALID,0.350781,
2011-07-15, 02:56:04,VALID,916.726,VALID,0,VALID,96.5353,VALID,0,VALID,19.6443,VALID,177,VALID,0.195703,
2011-07-15, 02:57:04,VALID,916.759,VALID,0,VALID,96.5506,VALID,0,VALID,19.6233,VALID,177,VALID,0.215625,
2011-07-15, 02:58:04,VALID,916.754,VALID,0,VALID,96.5506,VALID,0,VALID,19.6428,VALID,177,VALID,0.278125,
2011-07-15, 02:59:04,VALID,916.749,VALID,0,VALID,96.5353,VALID,0,VALID,19.6443,VALID,178,VALID,0.366797,
2011-07-15, 03:00:04,VALID,916.745,VALID,0,VALID,96.5353,VALID,0,VALID,19.6428,VALID,178,VALID,0.505469,
2011-07-15, 03:01:04,VALID,916.747,VALID,0,VALID,96.5277,VALID,0,VALID,19.6443,VALID,178,VALID,0.233594,
2011-07-15, 03:02:04,VALID,916.713,VALID,0,VALID,96.5277,VALID,0,VALID,19.6428,VALID,177,VALID,0.685547,
2011-07-15, 03:03:04,VALID,916.669,VALID,0,VALID,96.5048,VALID,0,VALID,19.6443,VALID,177,VALID,0.972266,
2011-07-15, 03:04:04,VALID,916.686,VALID,0,VALID,96.3829,VALID,0,VALID,19.5843,VALID,177,VALID,1.17773,
2011-07-15, 03:05:04,VALID,916.666,VALID,0,VALID,96.4591,VALID,0.107441,VALID,19.5648,VALID,53,VALID,1.19687,
2011-07-15, 03:06:04,VALID,916.66,VALID,0,VALID,96.4286,VALID,0,VALID,19.5468,VALID,53,VALID,1.26367,
2011-07-15, 03:07:04,VALID,916.644,VALID,0,VALID,96.3447,VALID,0,VALID,19.4868,VALID,53,VALID,1.18711,
2011-07-15, 03:08:04,VALID,916.658,VALID,0,VALID,96.3829,VALID,0,VALID,19.5063,VALID,29,VALID,1.57891,
2011-07-15, 03:09:04,VALID,916.639,VALID,0,VALID,96.3829,VALID,0,VALID,19.4868,VALID,29,VALID,1.12656,
2011-07-15, 03:10:04,VALID,916.6,VALID,0,VALID,96.4133,VALID,0.107441,VALID,19.4673,VALID,29,VALID,0.695313,
2011-07-15, 03:11:04,VALID,916.599,VALID,0,VALID,96.3905,VALID,0,VALID,19.4478,VALID,29,VALID,0.533594,
2011-07-15, 03:12:04,VALID,916.573,VALID,0,VALID,96.3829,VALID,0.107441,VALID,19.4493,VALID,29,VALID,0.541406,
2011-07-15, 03:13:04,VALID,916.558,VALID,0,VALID,96.4133,VALID,0,VALID,19.4283,VALID,29,VALID,1.16289,
2011-07-15, 03:14:04,VALID,916.571,VALID,0,VALID,96.421,VALID,0,VALID,19.4103,VALID,29,VALID,1.19414,
2011-07-15, 03:15:04,VALID,916.579,VALID,0,VALID,96.4133,VALID,0,VALID,19.3908,VALID,29,VALID,1.47461,
2011-07-15, 03:16:04,VALID,916.591,VALID,0,VALID,96.4667,VALID,0.107441,VALID,19.3518,VALID,29,VALID,1.13984,
2011-07-15, 03:17:04,VALID,916.616,VALID,0,VALID,96.5734,VALID,0,VALID,19.3518,VALID,13,VALID,1.71875,
2011-07-15, 03:18:04,VALID,916.598,VALID,0,VALID,96.5887,VALID,0,VALID,19.3308,VALID,33,VALID,1.66172,
2011-07-15, 03:19:04,VALID,916.563,VALID,0,VALID,96.6039,VALID,0,VALID,19.3308,VALID,17,VALID,1.39688,
2011-07-15, 03:20:04,VALID,916.567,VALID,0,VALID,96.6344,VALID,0,VALID,19.3113,VALID,18,VALID,1.14961,
2011-07-15, 03:21:04,VALID,916.546,VALID,0,VALID,96.6649,VALID,0,VALID,19.3323,VALID,23,VALID,1.14141,
2011-07-15, 03:22:04,VALID,916.561,VALID,0,VALID,96.6649,VALID,0,VALID,19.2918,VALID,6,VALID,0.910547,
2011-07-15, 03:23:04,VALID,916.537,VALID,0,VALID,96.7259,VALID,0,VALID,19.2933,VALID,23,VALID,1.45117,
2011-07-15, 03:24:04,VALID,916.544,VALID,0,VALID,96.7335,VALID,0,VALID,19.2723,VALID,25,VALID,0.807031,
2011-07-15, 03:25:04,VALID,916.527,VALID,0,VALID,96.764,VALID,0,VALID,19.2723,VALID,25,VALID,1.22656,
2011-07-15, 03:26:04,VALID,916.51,VALID,0,VALID,96.7564,VALID,0,VALID,19.2528,VALID,25,VALID,0.79375,
2011-07-15, 03:27:04,VALID,916.517,VALID,0,VALID,96.7869,VALID,0.107441,VALID,19.2528,VALID,25,VALID,0.728906,
2011-07-15, 03:28:04,VALID,916.49,VALID,0,VALID,96.7869,VALID,0,VALID,19.2334,VALID,25,VALID,0.907812,
2011-07-15, 03:29:04,VALID,916.503,VALID,0,VALID,96.825,VALID,0,VALID,19.2139,VALID,25,VALID,0.379687,
2011-07-15, 03:30:04,VALID,916.491,VALID,0,VALID,96.825,VALID,0,VALID,19.2139,VALID,25,VALID,0.483984,
2011-07-15, 03:31:04,VALID,916.528,VALID,0,VALID,96.8555,VALID,0,VALID,19.2139,VALID,24,VALID,0.123047,
2011-07-15, 03:32:04,VALID,916.503,VALID,0,VALID,96.8555,VALID,0,VALID,19.2139,VALID,25,VALID,0.219922,
2011-07-15, 03:33:04,VALID,916.492,VALID,0,VALID,96.886,VALID,0,VALID,19.2139,VALID,25,VALID,0.0339844,
2011-07-15, 03:34:04,VALID,916.542,VALID,0,VALID,96.886,VALID,0.107441,VALID,19.2334,VALID,25,VALID,0,
2011-07-15, 03:35:04,VALID,916.51,VALID,0,VALID,96.8555,VALID,0,VALID,19.2348,VALID,25,VALID,0.405469,
2011-07-15, 03:36:04,VALID,916.515,VALID,0,VALID,96.8784,VALID,0,VALID,19.2348,VALID,24,VALID,0.267969,
2011-07-15, 03:37:04,VALID,916.525,VALID,0,VALID,96.886,VALID,0,VALID,19.2348,VALID,25,VALID,0.0523437,
2011-07-15, 03:38:04,VALID,916.536,VALID,0,VALID,96.8784,VALID,0,VALID,19.2139,VALID,25,VALID,0,
2011-07-15, 03:39:04,VALID,916.526,VALID,0,VALID,96.886,VALID,0.107441,VALID,19.2153,VALID,25,VALID,0.221875,
2011-07-15, 03:40:04,VALID,916.533,VALID,0,VALID,96.8936,VALID,0,VALID,19.1958,VALID,24,VALID,0.0695312,
2011-07-15, 03:41:04,VALID,916.539,VALID,0,VALID,96.8784,VALID,0,VALID,19.1958,VALID,24,VALID,0.324609,
2011-07-15, 03:42:04,VALID,916.545,VALID,0,VALID,96.8784,VALID,0,VALID,19.1944,VALID,25,VALID,0.31875,
2011-07-15, 03:43:04,VALID,916.521,VALID,0,VALID,96.9012,VALID,0,VALID,19.2139,VALID,25,VALID,0.344141,
2011-07-15, 03:44:04,VALID,916.518,VALID,0,VALID,96.8784,VALID,0.107441,VALID,19.2334,VALID,25,VALID,0.341797,